Location: Waco, TX
(31.5480°N, 97.1670°W)
Time: 10:32:14
(UTC-05:00)

ISS - Pass Details

Date: 13 October 2018
Orbit: 403 x 408 km, 51.6° (Epoch: 21 October)

Event Time Altitude Azimuth Distance (km) Brightness Sun altitude
Rises 12:34:36 0° 252° (WSW) 2,315 0.0 49.3°
Reaches altitude 10° 12:36:57 10° 267° (W) 1,460 -1.0 49.5°
Maximum altitude 12:39:38 23° 322° (NW) 917 -2.1 49.6°
Drops below altitude 10° 12:42:20 10° 17° (NNE) 1,467 -1.2 49.7°
Sets 12:44:43 0° 33° (NNE) 2,331 -0.3 49.8°
